Year,Month,Day,Hour,Minute,Value (Times are PST for temperature in C)
2006,05,30,00,00,10.60
2006,05,30,00,01,10.60
2006,05,30,00,02,10.60
2006,05,30,00,03,10.60
2006,05,30,00,04,10.60
2006,05,30,00,05,10.60
2006,05,30,00,06,10.60
2006,05,30,00,07,10.60
2006,05,30,00,08,10.60
2006,05,30,00,09,10.60
2006,05,30,00,10,10.60
2006,05,30,00,11,10.60
2006,05,30,00,12,10.60
2006,05,30,00,13,10.60
2006,05,30,00,14,10.60
2006,05,30,00,15,10.60
2006,05,30,00,16,10.60
2006,05,30,00,17,10.60
2006,05,30,00,18,10.60
2006,05,30,00,19,10.60
2006,05,30,00,20,10.60
2006,05,30,00,21,10.60
2006,05,30,00,22,10.50
2006,05,30,00,23,10.40
2006,05,30,00,24,10.40
2006,05,30,00,25,10.40
2006,05,30,00,26,10.40
2006,05,30,00,27,10.40
2006,05,30,00,28,10.40
2006,05,30,00,29,10.40
2006,05,30,00,30,10.40
2006,05,30,00,31,10.40
2006,05,30,00,32,10.40
2006,05,30,00,33,10.40
2006,05,30,00,34,10.40
2006,05,30,00,35,10.30
2006,05,30,00,36,10.30
2006,05,30,00,37,10.30
2006,05,30,00,38,10.30
2006,05,30,00,39,10.20
2006,05,30,00,40,10.20
2006,05,30,00,41,10.10
2006,05,30,00,42,10.10
2006,05,30,00,43,10.10
2006,05,30,00,44,10.10
2006,05,30,00,45,10.10
2006,05,30,00,46,10.00
2006,05,30,00,47,9.90
2006,05,30,00,48,9.90
2006,05,30,00,49,9.90
2006,05,30,00,50,9.90
2006,05,30,00,51,9.90
2006,05,30,00,52,9.90
2006,05,30,00,53,9.90
2006,05,30,00,54,9.90
2006,05,30,00,55,9.80
2006,05,30,00,56,9.80
2006,05,30,00,57,9.80
2006,05,30,00,58,9.80
2006,05,30,00,59,9.80
2006,05,30,01,00,9.80
2006,05,30,01,01,9.80
2006,05,30,01,02,9.80
2006,05,30,01,03,9.80
2006,05,30,01,04,9.80
2006,05,30,01,05,9.80
2006,05,30,01,06,9.80
2006,05,30,01,07,9.70
2006,05,30,01,08,9.70
2006,05,30,01,09,9.70
2006,05,30,01,10,9.70
2006,05,30,01,11,9.80
2006,05,30,01,12,9.80
2006,05,30,01,13,9.80
2006,05,30,01,14,9.80
2006,05,30,01,15,9.80
2006,05,30,01,16,9.90
2006,05,30,01,17,9.90
2006,05,30,01,18,9.90
2006,05,30,01,19,9.90
2006,05,30,01,20,9.90
2006,05,30,01,21,9.90
2006,05,30,01,22,10.00
2006,05,30,01,23,10.10
2006,05,30,01,24,10.10
2006,05,30,01,25,10.10
2006,05,30,01,26,10.10
2006,05,30,01,27,10.10
2006,05,30,01,28,10.20
2006,05,30,01,29,10.20
2006,05,30,01,30,10.20
2006,05,30,01,31,10.30
2006,05,30,01,32,10.30
2006,05,30,01,33,10.30
2006,05,30,01,34,10.30
2006,05,30,01,35,10.30
2006,05,30,01,36,10.30
2006,05,30,01,37,10.30
2006,05,30,01,38,10.30
2006,05,30,01,39,10.30
2006,05,30,01,40,10.30
2006,05,30,01,41,10.30
2006,05,30,01,42,10.30
2006,05,30,01,43,10.20
2006,05,30,01,44,10.20
2006,05,30,01,45,10.20
2006,05,30,01,46,10.20
2006,05,30,01,47,10.20
2006,05,30,01,48,10.10
2006,05,30,01,49,10.10
2006,05,30,01,50,10.10
2006,05,30,01,51,10.10
2006,05,30,01,52,10.10
2006,05,30,01,53,10.00
2006,05,30,01,54,9.90
2006,05,30,01,55,9.90
2006,05,30,01,56,9.90
2006,05,30,01,57,9.90
2006,05,30,01,58,9.90
2006,05,30,01,59,9.90
2006,05,30,02,00,9.90
2006,05,30,02,01,9.80
2006,05,30,02,02,9.80
2006,05,30,02,03,9.80
2006,05,30,02,04,9.80
2006,05,30,02,05,9.70
2006,05,30,02,06,9.70
2006,05,30,02,07,9.70
2006,05,30,02,08,9.70
2006,05,30,02,09,9.70
2006,05,30,02,10,9.70
2006,05,30,02,11,9.70
2006,05,30,02,12,9.60
2006,05,30,02,13,9.60
2006,05,30,02,14,9.60
2006,05,30,02,15,9.60
2006,05,30,02,16,9.60
2006,05,30,02,17,9.60
2006,05,30,02,18,9.60
2006,05,30,02,19,9.50
2006,05,30,02,20,9.50
2006,05,30,02,21,9.50
2006,05,30,02,22,9.50
2006,05,30,02,23,9.40
2006,05,30,02,24,9.40
2006,05,30,02,25,9.40
2006,05,30,02,26,9.40
2006,05,30,02,27,9.40
2006,05,30,02,28,9.40
2006,05,30,02,29,9.30
2006,05,30,02,30,9.30
2006,05,30,02,31,9.30
2006,05,30,02,32,9.30
2006,05,30,02,33,9.30
2006,05,30,02,34,9.30
2006,05,30,02,35,9.30
2006,05,30,02,36,9.30
2006,05,30,02,37,9.30
2006,05,30,02,38,9.30
2006,05,30,02,39,9.30
2006,05,30,02,40,9.30
2006,05,30,02,41,9.30
2006,05,30,02,42,9.30
2006,05,30,02,43,9.30
2006,05,30,02,44,9.30
2006,05,30,02,45,9.30
2006,05,30,02,46,9.30
2006,05,30,02,47,9.30
2006,05,30,02,48,9.30
2006,05,30,02,49,9.30
2006,05,30,02,50,9.40
2006,05,30,02,51,9.40
2006,05,30,02,52,9.30
2006,05,30,02,53,9.30
2006,05,30,02,54,9.30
2006,05,30,02,55,9.30
2006,05,30,02,56,9.30
2006,05,30,02,57,9.30
2006,05,30,02,58,9.30
2006,05,30,02,59,9.30
2006,05,30,03,00,9.30
2006,05,30,03,01,9.30
2006,05,30,03,02,9.30
2006,05,30,03,03,9.30
2006,05,30,03,04,9.30
2006,05,30,03,05,9.30
2006,05,30,03,06,9.30
2006,05,30,03,07,9.30
2006,05,30,03,08,9.30
2006,05,30,03,09,9.30
2006,05,30,03,10,9.30
2006,05,30,03,11,9.30
2006,05,30,03,12,9.30
2006,05,30,03,13,9.30
2006,05,30,03,14,9.30
2006,05,30,03,15,9.30
2006,05,30,03,16,9.30
2006,05,30,03,17,9.30
2006,05,30,03,18,9.30
2006,05,30,03,19,9.30
2006,05,30,03,20,9.30
2006,05,30,03,21,9.20
2006,05,30,03,22,9.20
2006,05,30,03,23,9.20
2006,05,30,03,24,9.20
2006,05,30,03,25,9.20
2006,05,30,03,26,9.20
2006,05,30,03,27,9.20
2006,05,30,03,28,9.20
2006,05,30,03,29,9.20
2006,05,30,03,30,9.20
2006,05,30,03,31,9.20
2006,05,30,03,32,9.20
2006,05,30,03,33,9.20
2006,05,30,03,34,9.20
2006,05,30,03,35,9.20
2006,05,30,03,36,9.20
2006,05,30,03,37,9.20
2006,05,30,03,38,9.20
2006,05,30,03,39,9.20
2006,05,30,03,40,9.10
2006,05,30,03,41,9.10
2006,05,30,03,42,9.10
2006,05,30,03,43,9.10
2006,05,30,03,44,9.10
2006,05,30,03,45,9.10
2006,05,30,03,46,9.10
2006,05,30,03,47,9.10
2006,05,30,03,48,9.10
2006,05,30,03,49,9.10
2006,05,30,03,50,9.10
2006,05,30,03,51,9.10
2006,05,30,03,52,9.10
2006,05,30,03,53,9.10
2006,05,30,03,54,9.10
2006,05,30,03,55,9.10
2006,05,30,03,56,9.10
2006,05,30,03,57,9.10
2006,05,30,03,58,9.10
2006,05,30,03,59,9.10
2006,05,30,04,00,9.10
2006,05,30,04,01,9.10
2006,05,30,04,02,9.10
2006,05,30,04,03,9.10
2006,05,30,04,04,9.10
2006,05,30,04,05,9.10
2006,05,30,04,06,9.10
2006,05,30,04,07,9.20
2006,05,30,04,08,9.20
2006,05,30,04,09,9.20
2006,05,30,04,10,9.20
2006,05,30,04,11,9.20
2006,05,30,04,12,9.20
2006,05,30,04,13,9.20
2006,05,30,04,14,9.20
2006,05,30,04,15,9.20
2006,05,30,04,16,9.20
2006,05,30,04,17,9.20
2006,05,30,04,18,9.20
2006,05,30,04,19,9.20
2006,05,30,04,20,9.20
2006,05,30,04,21,9.20
2006,05,30,04,22,9.20
2006,05,30,04,23,9.20
2006,05,30,04,24,9.20
2006,05,30,04,25,9.20
2006,05,30,04,26,9.20
2006,05,30,04,27,9.20
2006,05,30,04,28,9.20
2006,05,30,04,29,9.20
2006,05,30,04,30,9.20
2006,05,30,04,31,9.20
2006,05,30,04,32,9.20
2006,05,30,04,33,9.20
2006,05,30,04,34,9.20
2006,05,30,04,35,9.10
2006,05,30,04,36,9.10
2006,05,30,04,37,9.10
2006,05,30,04,38,9.00
2006,05,30,04,39,9.00
2006,05,30,04,40,9.00
2006,05,30,04,41,9.00
2006,05,30,04,42,9.00
2006,05,30,04,43,8.90
2006,05,30,04,44,8.90
2006,05,30,04,45,8.90
2006,05,30,04,46,8.90
2006,05,30,04,47,8.90
2006,05,30,04,48,8.90
2006,05,30,04,49,8.90
2006,05,30,04,50,8.80
2006,05,30,04,51,8.80
2006,05,30,04,52,8.80
2006,05,30,04,53,8.80
2006,05,30,04,54,8.80
2006,05,30,04,55,8.80
2006,05,30,04,56,8.80
2006,05,30,04,57,8.70
2006,05,30,04,58,8.70
2006,05,30,04,59,8.70
2006,05,30,05,00,8.70
2006,05,30,05,01,8.70
2006,05,30,05,02,8.70
2006,05,30,05,03,8.70
2006,05,30,05,04,8.70
2006,05,30,05,05,8.70
2006,05,30,05,06,8.70
2006,05,30,05,07,8.70
2006,05,30,05,08,8.70
2006,05,30,05,09,8.70
2006,05,30,05,10,8.70
2006,05,30,05,11,8.70
2006,05,30,05,12,8.70
2006,05,30,05,13,8.70
2006,05,30,05,14,8.70
2006,05,30,05,15,8.70
2006,05,30,05,16,8.70
2006,05,30,05,17,8.70
2006,05,30,05,18,8.70
2006,05,30,05,19,8.70
2006,05,30,05,20,8.70
2006,05,30,05,21,8.70
2006,05,30,05,22,8.70
2006,05,30,05,23,8.70
2006,05,30,05,24,8.70
2006,05,30,05,25,8.70
2006,05,30,05,26,8.70
2006,05,30,05,27,8.70
2006,05,30,05,28,8.70
2006,05,30,05,29,8.70
2006,05,30,05,30,8.70
2006,05,30,05,31,8.70
2006,05,30,05,32,8.70
2006,05,30,05,33,8.70
2006,05,30,05,34,8.70
2006,05,30,05,35,8.70
2006,05,30,05,36,8.70
2006,05,30,05,37,8.70
2006,05,30,05,38,8.70
2006,05,30,05,39,8.70
2006,05,30,05,40,8.70
2006,05,30,05,41,8.70
2006,05,30,05,42,8.70
2006,05,30,05,43,8.70
2006,05,30,05,44,8.70
2006,05,30,05,45,8.70
2006,05,30,05,46,8.70
2006,05,30,05,47,8.80
2006,05,30,05,48,8.80
2006,05,30,05,49,8.80
2006,05,30,05,50,8.80
2006,05,30,05,51,8.80
2006,05,30,05,52,8.90
2006,05,30,05,53,8.90
2006,05,30,05,54,8.90
2006,05,30,05,55,8.90
2006,05,30,05,56,8.90
2006,05,30,05,57,8.90
2006,05,30,05,58,8.90
2006,05,30,05,59,9.00
2006,05,30,06,00,9.00
2006,05,30,06,01,9.00
2006,05,30,06,02,9.10
2006,05,30,06,03,9.10
2006,05,30,06,04,9.10
2006,05,30,06,05,9.20
2006,05,30,06,06,9.20
2006,05,30,06,07,9.20
2006,05,30,06,08,9.20
2006,05,30,06,09,9.20
2006,05,30,06,10,9.20
2006,05,30,06,11,9.20
2006,05,30,06,12,9.20
2006,05,30,06,13,9.30
2006,05,30,06,14,9.30
2006,05,30,06,15,9.30
2006,05,30,06,16,9.40
2006,05,30,06,17,9.40
2006,05,30,06,18,9.40
2006,05,30,06,19,9.40
2006,05,30,06,20,9.40
2006,05,30,06,21,9.50
2006,05,30,06,22,9.50
2006,05,30,06,23,9.50
2006,05,30,06,24,9.60
2006,05,30,06,25,9.60
2006,05,30,06,26,9.60
2006,05,30,06,27,9.60
2006,05,30,06,28,9.70
2006,05,30,06,29,9.70
2006,05,30,06,30,9.70
2006,05,30,06,31,9.70
2006,05,30,06,32,9.70
2006,05,30,06,33,9.70
2006,05,30,06,34,9.70
2006,05,30,06,35,9.70
2006,05,30,06,36,9.80
2006,05,30,06,37,9.80
2006,05,30,06,38,9.90
2006,05,30,06,39,9.90
2006,05,30,06,40,9.90
2006,05,30,06,41,9.90
2006,05,30,06,42,10.10
2006,05,30,06,43,10.10
2006,05,30,06,44,10.10
2006,05,30,06,45,10.20
2006,05,30,06,46,10.20
2006,05,30,06,47,10.30
2006,05,30,06,48,10.30
2006,05,30,06,49,10.40
2006,05,30,06,50,10.40
2006,05,30,06,51,10.50
2006,05,30,06,52,10.60
2006,05,30,06,53,10.60
2006,05,30,06,54,10.60
2006,05,30,06,55,10.60
2006,05,30,06,56,10.70
2006,05,30,06,57,10.70
2006,05,30,06,58,10.80
2006,05,30,06,59,10.80
2006,05,30,07,00,10.90
2006,05,30,07,01,10.90
2006,05,30,07,02,10.90
2006,05,30,07,03,10.90
2006,05,30,07,04,10.90
2006,05,30,07,05,11.00
2006,05,30,07,06,11.10
2006,05,30,07,07,11.10
2006,05,30,07,08,11.10
2006,05,30,07,09,11.10
2006,05,30,07,10,11.10
2006,05,30,07,11,11.20
2006,05,30,07,12,11.30
2006,05,30,07,13,11.30
2006,05,30,07,14,11.40
2006,05,30,07,15,11.40
2006,05,30,07,16,11.50
2006,05,30,07,17,11.60
2006,05,30,07,18,11.60
2006,05,30,07,19,11.70
2006,05,30,07,20,11.70
2006,05,30,07,21,11.80
2006,05,30,07,22,11.80
2006,05,30,07,23,11.80
2006,05,30,07,24,11.80
2006,05,30,07,25,11.90
2006,05,30,07,26,11.90
2006,05,30,07,27,12.00
2006,05,30,07,28,12.00
2006,05,30,07,29,12.10
2006,05,30,07,30,12.20
2006,05,30,07,31,12.30
2006,05,30,07,32,12.40
2006,05,30,07,33,12.40
2006,05,30,07,34,12.50
2006,05,30,07,35,12.50
2006,05,30,07,36,12.50
2006,05,30,07,37,12.50
2006,05,30,07,38,12.50
2006,05,30,07,39,12.50
2006,05,30,07,40,12.50
2006,05,30,07,41,12.60
2006,05,30,07,42,12.70
2006,05,30,07,43,12.70
2006,05,30,07,44,12.70
2006,05,30,07,45,12.60
2006,05,30,07,46,12.50
2006,05,30,07,47,12.50
2006,05,30,07,48,12.40
2006,05,30,07,49,12.40
2006,05,30,07,50,12.40
2006,05,30,07,51,12.30
2006,05,30,07,52,12.40
2006,05,30,07,53,12.40
2006,05,30,07,54,12.50
2006,05,30,07,55,12.50
2006,05,30,07,56,12.50
2006,05,30,07,57,12.50
2006,05,30,07,58,12.60
2006,05,30,07,59,12.60
2006,05,30,08,00,12.60
2006,05,30,08,01,12.70
2006,05,30,08,02,12.70
2006,05,30,08,03,12.80
2006,05,30,08,04,12.80
2006,05,30,08,05,12.80
2006,05,30,08,06,12.90
2006,05,30,08,07,12.90
2006,05,30,08,08,12.90
2006,05,30,08,09,12.80
2006,05,30,08,10,12.80
2006,05,30,08,11,12.90
2006,05,30,08,12,13.00
2006,05,30,08,13,13.00
2006,05,30,08,14,13.10
2006,05,30,08,15,13.10
2006,05,30,08,16,13.00
2006,05,30,08,17,13.00
2006,05,30,08,18,13.10
2006,05,30,08,19,13.10
2006,05,30,08,20,13.20
2006,05,30,08,21,13.20
2006,05,30,08,22,13.20
2006,05,30,08,23,13.20
2006,05,30,08,24,13.20
2006,05,30,08,25,13.20
2006,05,30,08,26,13.20
2006,05,30,08,27,13.20
2006,05,30,08,28,13.30
2006,05,30,08,29,13.30
2006,05,30,08,30,13.30
2006,05,30,08,31,13.30
2006,05,30,08,32,13.30
2006,05,30,08,33,13.30
2006,05,30,08,34,13.30
2006,05,30,08,35,13.50
2006,05,30,08,36,13.50
2006,05,30,08,37,13.60
2006,05,30,08,38,13.70
2006,05,30,08,39,13.70
2006,05,30,08,40,13.70
2006,05,30,08,41,13.80
2006,05,30,08,42,13.70
2006,05,30,08,43,13.70
2006,05,30,08,44,13.70
2006,05,30,08,45,13.80
2006,05,30,08,46,13.80
2006,05,30,08,47,13.80
2006,05,30,08,48,13.80
2006,05,30,08,49,13.80
2006,05,30,08,50,13.80
2006,05,30,08,51,13.70
2006,05,30,08,52,13.70
2006,05,30,08,53,13.70
2006,05,30,08,54,13.70
2006,05,30,08,55,13.60
2006,05,30,08,56,13.50
2006,05,30,08,57,13.40
2006,05,30,08,58,13.50
2006,05,30,08,59,13.50
2006,05,30,09,00,13.60
2006,05,30,09,01,13.70
2006,05,30,09,02,13.70
2006,05,30,09,03,13.70
2006,05,30,09,04,13.70
2006,05,30,09,05,13.60
2006,05,30,09,06,13.50
2006,05,30,09,07,13.40
2006,05,30,09,08,13.30
2006,05,30,09,09,13.30
2006,05,30,09,10,13.30
2006,05,30,09,11,13.30
2006,05,30,09,12,13.40
2006,05,30,09,13,13.30
2006,05,30,09,14,13.30
2006,05,30,09,15,13.30
2006,05,30,09,16,13.30
2006,05,30,09,17,13.40
2006,05,30,09,18,13.40
2006,05,30,09,19,13.40
2006,05,30,09,20,13.40
2006,05,30,09,21,13.30
2006,05,30,09,22,13.30
2006,05,30,09,23,13.30
2006,05,30,09,24,13.20
2006,05,30,09,25,13.30
2006,05,30,09,26,13.30
2006,05,30,09,27,13.30
2006,05,30,09,28,13.30
2006,05,30,09,29,13.30
2006,05,30,09,30,13.40
2006,05,30,09,31,13.50
2006,05,30,09,32,13.50
2006,05,30,09,33,13.50
2006,05,30,09,34,13.40
2006,05,30,09,35,13.50
2006,05,30,09,36,13.60
2006,05,30,09,37,13.70
2006,05,30,09,38,13.80
2006,05,30,09,39,13.80
2006,05,30,09,40,13.70
2006,05,30,09,41,13.70
2006,05,30,09,42,13.80
2006,05,30,09,43,13.90
2006,05,30,09,44,14.00
2006,05,30,09,45,14.00
2006,05,30,09,46,13.90
2006,05,30,09,47,13.80
2006,05,30,09,48,13.80
2006,05,30,09,49,13.80
2006,05,30,09,50,13.70
2006,05,30,09,51,13.70
2006,05,30,09,52,13.70
2006,05,30,09,53,13.70
2006,05,30,09,54,13.70
2006,05,30,09,55,13.70
2006,05,30,09,56,13.70
2006,05,30,09,57,13.70
2006,05,30,09,58,13.90
2006,05,30,09,59,14.00
2006,05,30,10,00,13.90
2006,05,30,10,01,13.90
2006,05,30,10,02,13.90
2006,05,30,10,03,14.00
2006,05,30,10,04,14.00
2006,05,30,10,05,14.00
2006,05,30,10,06,14.10
2006,05,30,10,07,14.00
2006,05,30,10,08,14.00
2006,05,30,10,09,14.00
2006,05,30,10,10,14.00
2006,05,30,10,11,14.00
2006,05,30,10,12,14.00
2006,05,30,10,13,14.00
2006,05,30,10,14,14.00
2006,05,30,10,15,14.00
2006,05,30,10,16,14.00
2006,05,30,10,17,14.00
2006,05,30,10,18,14.00
2006,05,30,10,19,14.10
2006,05,30,10,20,14.20
2006,05,30,10,21,14.20
2006,05,30,10,22,14.20
2006,05,30,10,23,14.10
2006,05,30,10,24,14.00
2006,05,30,10,25,14.00
2006,05,30,10,26,14.00
2006,05,30,10,27,14.00
2006,05,30,10,28,14.00
2006,05,30,10,29,14.20
2006,05,30,10,30,14.20
2006,05,30,10,31,14.20
2006,05,30,10,32,14.20
2006,05,30,10,33,14.20
2006,05,30,10,34,14.20
2006,05,30,10,35,14.20
2006,05,30,10,36,14.20
2006,05,30,10,37,14.30
2006,05,30,10,38,14.30
2006,05,30,10,39,14.20
2006,05,30,10,40,14.20
2006,05,30,10,41,14.20
2006,05,30,10,42,14.20
2006,05,30,10,43,14.30
2006,05,30,10,44,14.30
2006,05,30,10,45,14.30
2006,05,30,10,46,14.20
2006,05,30,10,47,14.20
2006,05,30,10,48,14.20
2006,05,30,10,49,14.20
2006,05,30,10,50,14.20
2006,05,30,10,51,14.30
2006,05,30,10,52,14.20
2006,05,30,10,53,14.10
2006,05,30,10,54,14.10
2006,05,30,10,55,14.20
2006,05,30,10,56,14.20
2006,05,30,10,57,14.20
2006,05,30,10,58,14.20
2006,05,30,10,59,14.20
2006,05,30,11,00,14.30
2006,05,30,11,01,14.40
2006,05,30,11,02,14.50
2006,05,30,11,03,14.50
2006,05,30,11,04,14.60
2006,05,30,11,05,14.70
2006,05,30,11,06,14.70
2006,05,30,11,07,14.60
2006,05,30,11,08,14.60
2006,05,30,11,09,14.50
2006,05,30,11,10,14.50
2006,05,30,11,11,14.50
2006,05,30,11,12,14.50
2006,05,30,11,13,14.50
2006,05,30,11,14,14.50
2006,05,30,11,15,14.50
2006,05,30,11,16,14.30
2006,05,30,11,17,14.40
2006,05,30,11,18,14.50
2006,05,30,11,19,14.50
2006,05,30,11,20,14.60
2006,05,30,11,21,14.60
2006,05,30,11,22,14.60
2006,05,30,11,23,14.70
2006,05,30,11,24,14.70
2006,05,30,11,25,14.80
2006,05,30,11,26,14.80
2006,05,30,11,27,14.80
2006,05,30,11,28,14.80
2006,05,30,11,29,14.90
2006,05,30,11,30,14.90
2006,05,30,11,31,15.00
2006,05,30,11,32,15.00
2006,05,30,11,33,15.00
2006,05,30,11,34,15.10
2006,05,30,11,35,15.20
2006,05,30,11,36,15.20
2006,05,30,11,37,15.30
2006,05,30,11,38,15.20
2006,05,30,11,39,15.20
2006,05,30,11,40,15.30
2006,05,30,11,41,15.30
2006,05,30,11,42,15.40
2006,05,30,11,43,15.40
2006,05,30,11,44,15.40
2006,05,30,11,45,15.40
2006,05,30,11,46,15.50
2006,05,30,11,47,15.60
2006,05,30,11,48,15.70
2006,05,30,11,49,15.70
2006,05,30,11,50,15.70
2006,05,30,11,51,15.70
2006,05,30,11,52,15.60
2006,05,30,11,53,15.50
2006,05,30,11,54,15.50
2006,05,30,11,55,15.60
2006,05,30,11,56,15.60
2006,05,30,11,57,15.70
2006,05,30,11,58,15.70
2006,05,30,11,59,15.80
2006,05,30,12,00,15.80
2006,05,30,12,01,15.70
2006,05,30,12,02,15.80
2006,05,30,12,03,15.80
2006,05,30,12,04,15.80
2006,05,30,12,05,15.80
2006,05,30,12,06,15.80
2006,05,30,12,07,15.80
2006,05,30,12,08,15.80
2006,05,30,12,09,15.90
2006,05,30,12,10,16.00
2006,05,30,12,11,16.10
2006,05,30,12,12,16.10
2006,05,30,12,13,16.10
2006,05,30,12,14,16.10
2006,05,30,12,15,16.20
2006,05,30,12,16,16.20
2006,05,30,12,17,16.20
2006,05,30,12,18,16.10
2006,05,30,12,19,16.20
2006,05,30,12,20,16.20
2006,05,30,12,21,16.30
2006,05,30,12,22,16.30
2006,05,30,12,23,16.30
2006,05,30,12,24,16.20
2006,05,30,12,25,16.10
2006,05,30,12,26,16.10
2006,05,30,12,27,16.10
2006,05,30,12,28,16.20
2006,05,30,12,29,16.20
2006,05,30,12,30,16.30
2006,05,30,12,31,16.30
2006,05,30,12,32,16.20
2006,05,30,12,33,16.20
2006,05,30,12,34,16.20
2006,05,30,12,35,16.30
2006,05,30,12,36,16.30
2006,05,30,12,37,16.30
2006,05,30,12,38,16.30
2006,05,30,12,39,16.30
2006,05,30,12,40,16.40
2006,05,30,12,41,16.40
2006,05,30,12,42,16.40
2006,05,30,12,43,16.40
2006,05,30,12,44,16.40
2006,05,30,12,45,16.40
2006,05,30,12,46,16.50
2006,05,30,12,47,16.60
2006,05,30,12,48,16.60
2006,05,30,12,49,16.70
2006,05,30,12,50,16.60
2006,05,30,12,51,16.60
2006,05,30,12,52,16.70
2006,05,30,12,53,16.70
2006,05,30,12,54,16.70
2006,05,30,12,55,16.80
2006,05,30,12,56,16.70
2006,05,30,12,57,16.70
2006,05,30,12,58,16.70
2006,05,30,12,59,16.70
2006,05,30,13,00,16.90
2006,05,30,13,01,16.90
2006,05,30,13,02,16.90
2006,05,30,13,03,16.80
2006,05,30,13,04,16.80
2006,05,30,13,05,16.90
2006,05,30,13,06,16.90
2006,05,30,13,07,16.90
2006,05,30,13,08,16.90
2006,05,30,13,09,16.80
2006,05,30,13,10,16.70
2006,05,30,13,11,16.70
2006,05,30,13,12,16.70
2006,05,30,13,13,16.70
2006,05,30,13,14,16.90
2006,05,30,13,15,16.90
2006,05,30,13,16,16.90
2006,05,30,13,17,17.00
2006,05,30,13,18,17.10
2006,05,30,13,19,17.10
2006,05,30,13,20,17.10
2006,05,30,13,21,17.10
2006,05,30,13,22,17.10
2006,05,30,13,23,17.10
2006,05,30,13,24,17.20
2006,05,30,13,25,17.20
2006,05,30,13,26,17.30
2006,05,30,13,27,17.30
2006,05,30,13,28,17.30
2006,05,30,13,29,17.20
2006,05,30,13,30,17.20
2006,05,30,13,31,17.20
2006,05,30,13,32,17.20
2006,05,30,13,33,17.30
2006,05,30,13,34,17.30
2006,05,30,13,35,17.30
2006,05,30,13,36,17.30
2006,05,30,13,37,17.30
2006,05,30,13,38,17.30
2006,05,30,13,39,17.30
2006,05,30,13,40,17.30
2006,05,30,13,41,17.30
2006,05,30,13,42,17.30
2006,05,30,13,43,17.30
2006,05,30,13,44,17.30
2006,05,30,13,45,17.30
2006,05,30,13,46,17.30
2006,05,30,13,47,17.30
2006,05,30,13,48,17.30
2006,05,30,13,49,17.30
2006,05,30,13,50,17.30
2006,05,30,13,51,17.30
2006,05,30,13,52,17.30
2006,05,30,13,53,17.30
2006,05,30,13,54,17.30
2006,05,30,13,55,17.40
2006,05,30,13,56,17.50
2006,05,30,13,57,17.50
2006,05,30,13,58,17.60
2006,05,30,13,59,17.60
2006,05,30,14,00,17.50
2006,05,30,14,01,17.40
2006,05,30,14,02,17.30
2006,05,30,14,03,17.20
2006,05,30,14,04,17.20
2006,05,30,14,05,17.20
2006,05,30,14,06,17.30
2006,05,30,14,07,17.40
2006,05,30,14,08,17.50
2006,05,30,14,09,17.40
2006,05,30,14,10,17.30
2006,05,30,14,11,17.30
2006,05,30,14,12,17.30
2006,05,30,14,13,17.40
2006,05,30,14,14,17.40
2006,05,30,14,15,17.40
2006,05,30,14,16,17.50
2006,05,30,14,17,17.50
2006,05,30,14,18,17.60
2006,05,30,14,19,17.70
2006,05,30,14,20,17.80
2006,05,30,14,21,17.70
2006,05,30,14,22,17.70
2006,05,30,14,23,17.50
2006,05,30,14,24,17.40
2006,05,30,14,25,17.30
2006,05,30,14,26,17.20
2006,05,30,14,27,17.30
2006,05,30,14,28,17.40
2006,05,30,14,29,17.50
2006,05,30,14,30,17.50
2006,05,30,14,31,17.50
2006,05,30,14,32,17.50
2006,05,30,14,33,17.50
2006,05,30,14,34,17.60
2006,05,30,14,35,17.70
2006,05,30,14,36,17.70
2006,05,30,14,37,17.60
2006,05,30,14,38,17.50
2006,05,30,14,39,17.50
2006,05,30,14,40,17.50
2006,05,30,14,41,17.70
2006,05,30,14,42,17.70
2006,05,30,14,43,17.80
2006,05,30,14,44,17.80
2006,05,30,14,45,17.80
2006,05,30,14,46,17.80
2006,05,30,14,47,17.80
2006,05,30,14,48,17.90
2006,05,30,14,49,17.90
2006,05,30,14,50,17.90
2006,05,30,14,51,17.90
2006,05,30,14,52,17.80
2006,05,30,14,53,17.80
2006,05,30,14,54,17.80
2006,05,30,14,55,17.80
2006,05,30,14,56,17.80
2006,05,30,14,57,17.80
2006,05,30,14,58,18.00
2006,05,30,14,59,18.30
2006,05,30,15,00,18.30
2006,05,30,15,01,18.30
2006,05,30,15,02,18.30
2006,05,30,15,03,18.30
2006,05,30,15,04,18.40
2006,05,30,15,05,18.50
2006,05,30,15,06,18.50
2006,05,30,15,07,18.50
2006,05,30,15,08,18.50
2006,05,30,15,09,18.50
2006,05,30,15,10,18.40
2006,05,30,15,11,18.40
2006,05,30,15,12,18.30
2006,05,30,15,13,18.40
2006,05,30,15,14,18.50
2006,05,30,15,15,18.60
2006,05,30,15,16,18.80
2006,05,30,15,17,18.70
2006,05,30,15,18,18.60
2006,05,30,15,19,18.50
2006,05,30,15,20,18.50
2006,05,30,15,21,18.40
2006,05,30,15,22,18.30
2006,05,30,15,23,18.30
2006,05,30,15,24,18.30
2006,05,30,15,25,18.30
2006,05,30,15,26,18.40
2006,05,30,15,27,18.50
2006,05,30,15,28,18.50
2006,05,30,15,29,18.50
2006,05,30,15,30,18.50
2006,05,30,15,31,18.50
2006,05,30,15,32,18.60
2006,05,30,15,33,18.60
2006,05,30,15,34,18.50
2006,05,30,15,35,18.50
2006,05,30,15,36,18.30
2006,05,30,15,37,18.20
2006,05,30,15,38,18.20
2006,05,30,15,39,18.20
2006,05,30,15,40,18.20
2006,05,30,15,41,18.20
2006,05,30,15,42,18.40
2006,05,30,15,43,18.40
2006,05,30,15,44,18.40
2006,05,30,15,45,18.40
2006,05,30,15,46,18.40
2006,05,30,15,47,18.40
2006,05,30,15,48,18.50
2006,05,30,15,49,18.60
2006,05,30,15,50,18.70
2006,05,30,15,51,18.90
2006,05,30,15,52,18.90
2006,05,30,15,53,18.80
2006,05,30,15,54,18.70
2006,05,30,15,55,18.70
2006,05,30,15,56,18.70
2006,05,30,15,57,18.80
2006,05,30,15,58,18.80
2006,05,30,15,59,18.80
2006,05,30,16,00,18.80
2006,05,30,16,01,18.70
2006,05,30,16,02,18.70
2006,05,30,16,03,18.80
2006,05,30,16,04,18.70
2006,05,30,16,05,18.70
2006,05,30,16,06,18.70
2006,05,30,16,07,18.70
2006,05,30,16,08,18.80
2006,05,30,16,09,18.80
2006,05,30,16,10,18.80
2006,05,30,16,11,18.80
2006,05,30,16,12,18.80
2006,05,30,16,13,18.90
2006,05,30,16,14,18.90
2006,05,30,16,15,18.90
2006,05,30,16,16,18.90
2006,05,30,16,17,18.90
2006,05,30,16,18,19.10
2006,05,30,16,19,19.10
2006,05,30,16,20,19.10
2006,05,30,16,21,19.10
2006,05,30,16,22,19.10
2006,05,30,16,23,19.10
2006,05,30,16,24,19.10
2006,05,30,16,25,19.30
2006,05,30,16,26,19.30
2006,05,30,16,27,19.40
2006,05,30,16,28,19.40
2006,05,30,16,29,19.50
2006,05,30,16,30,19.60
2006,05,30,16,31,19.70
2006,05,30,16,32,19.80
2006,05,30,16,33,19.70
2006,05,30,16,34,19.60
2006,05,30,16,35,19.40
2006,05,30,16,36,19.30
2006,05,30,16,37,19.10
2006,05,30,16,38,19.10
2006,05,30,16,39,19.10
2006,05,30,16,40,19.10
2006,05,30,16,41,19.10
2006,05,30,16,42,19.00
2006,05,30,16,43,18.90
2006,05,30,16,44,19.10
2006,05,30,16,45,19.10
2006,05,30,16,46,19.10
2006,05,30,16,47,19.10
2006,05,30,16,48,19.00
2006,05,30,16,49,18.90
2006,05,30,16,50,18.90
2006,05,30,16,51,18.90
2006,05,30,16,52,18.80
2006,05,30,16,53,18.80
2006,05,30,16,54,18.80
2006,05,30,16,55,18.90
2006,05,30,16,56,18.90
2006,05,30,16,57,18.90
2006,05,30,16,58,18.90
2006,05,30,16,59,18.90
2006,05,30,17,00,18.90
2006,05,30,17,01,18.90
2006,05,30,17,02,18.90
2006,05,30,17,03,18.90
2006,05,30,17,04,18.90
2006,05,30,17,05,19.00
2006,05,30,17,06,19.10
2006,05,30,17,07,19.10
2006,05,30,17,08,19.10
2006,05,30,17,09,19.10
2006,05,30,17,10,19.10
2006,05,30,17,11,19.10
2006,05,30,17,12,19.10
2006,05,30,17,13,19.10
2006,05,30,17,14,19.10
2006,05,30,17,15,19.10
2006,05,30,17,16,19.10
2006,05,30,17,17,19.10
2006,05,30,17,18,19.20
2006,05,30,17,19,19.20
2006,05,30,17,20,19.20
2006,05,30,17,21,19.20
2006,05,30,17,22,19.10
2006,05,30,17,23,19.10
2006,05,30,17,24,19.10
2006,05,30,17,25,19.10
2006,05,30,17,26,19.10
2006,05,30,17,27,19.10
2006,05,30,17,28,19.10
2006,05,30,17,29,19.10
2006,05,30,17,30,19.00
2006,05,30,17,31,18.90
2006,05,30,17,32,18.90
2006,05,30,17,33,18.90